482  
ASUS41 KBOX 152110  
RWRBOX  
 
REGIONAL WEATHER ROUNDUP  
NATIONAL WEATHER SERVICE BOSTON/NORTON MA  
400 PM EST SAT DEC 15 2018  
 
NOTE: "FAIR" INDICATES FEW OR NO CLOUDS BELOW 12,000 FEET WITH NO  
SIGNIFICANT WEATHER AND/OR S TO VISIBILITY
.  
 
MAZALL-152200-  
EASTERN MASSACHUSETTS  
 
CITY SKY/WX TMP DP RH WIND PRES REMARKS
 
BOSTON CLOUDY 51 36 56 N10 30.16R  
BEVERLY FAIR 50 34 54 N6 30.16R  
LAWRENCE FAIR 51 35 54 N9 30.19R  
BEDFORD CLOUDY 50 34 54 N9 30.15R  
BLUE HILL N/A 47 39 74 N10 30.13R  
NORWOOD FAIR 49 44 83 NE3 30.15R  
MARSHFIELD FAIR 50 46 87 NE3 30.15S  
PLYMOUTH NOT AVBL  
TAUNTON FOG 47 45 93 CALM 30.14R VSB 1/4  
NEW BEDFORD FAIR 49 49 100 CALM 30.14R  

 
 
MAZALL-152200-  
CAPE COD AND THE ISLANDS  
 
CITY SKY/WX TMP DP RH WIND PRES REMARKS
 
FALMOUTH MOCLDY 48 46 93 NE8 30.15R  
HYANNIS CLOUDY 49 46 90 N7 30.14R  
CHATHAM CLOUDY 49 45 86 NE7 30.15R  
PROVINCETOWN FAIR 46 44 93 NE9 30.16S  
NANTUCKET MOCLDY 49 47 93 N13 30.12R  
MARTHAS VNYRD CLOUDY 50 50 100 NE8 30.12S  

 
 
MAZALL-152200-  
CENTRAL AND WESTERN MASSACHUSETTS  
 
CITY SKY/WX TMP DP RH WIND PRES REMARKS
 
WORCESTER FAIR 47 31 53 N6 30.14R  
FITCHBURG FAIR 48 32 53 N8 30.17R  
ORANGE FAIR 47 33 58 N7 30.17R  
SPRINGFIELD CLOUDY 48 35 61 N7 30.13S  
WESTFIELD FAIR 49 37 63 NE6 30.13S  
NORTH ADAMS FAIR 43 38 82 W3 30.17S  
PITTSFIELD FAIR 43 35 73 N5 30.13F  

 
 
RIZALL-152200-  
RHODE ISLAND  
 
CITY SKY/WX TMP DP RH WIND PRES REMARKS
 
PROVIDENCE CLOUDY 48 46 93 NE5 30.14R  
NEWPORT FAIR 49 48 97 NE8 30.12S  
BLOCK ISLAND MOCLDY 48 47 96 NE9 30.12R FOG  
SMITHFIELD FAIR 48 44 86 E3 30.15R  
WESTERLY FAIR 54 49 83 NE5 30.12S  

 
 
CTZALL-152200-  
CONNECTICUT  
 
CITY SKY/WX TMP DP RH WIND PRES REMARKS
 
BRADLEY INTL CLOUDY 46 42 86 N8 30.13R  
HARTFORD FAIR 48 45 89 CALM 30.13S  
BRIDGEPORT FAIR 51 43 74 N7 30.10F  
DANBURY FAIR 48 41 76 NE3 30.11F  
GROTON FAIR 51 46 83 N8 30.11S  
NEW HAVEN MOCLDY 51 43 74 N9 30.10F  
CHESTER FAIR 50 45 81 NE6G12 30.11S  
MERIDEN FAIR 49 43 80 NE7 30.13R  
WILLIMANTIC FAIR 47 46 97 CALM 30.14R  
OXFORD FAIR 48 41 76 NE6 30.12R  

 
 
MEZ002-015-021-024-NHZ003-005-008-011-012-014-VTZ005-008-152200-  
NORTHERN NEW ENGLAND  
 
CITY SKY/WX TMP DP RH WIND PRES REMARKS
 
PORTLAND ME MOCLDY 42 26 53 VRB6 30.20R  
BANGOR ME MOCLDY 41 26 55 NW8 30.21R  
CONCORD NH FAIR 42 30 62 NW7 30.20R  
MANCHESTER NH CLOUDY 46 32 58 N7 30.18R  
NASHUA NH FAIR 47 35 63 N7 30.18R  
PORTSMOUTH NH CLOUDY 45 29 53 NW5 30.17R  
JAFFREY NH FAIR 39 34 82 CALM 30.16R  
KEENE NH LGT RAIN 43 34 70 CALM 30.18R  
BURLINGTON VT MOCLDY 39 28 64 N6 30.25R  
MT. WASHINGTON MOCLDY 21 3 45 NW37G53 N/A WCI 1  

 
 
NYZ052-076-152200-  
EASTERN NEW YORK  
 
CITY SKY/WX TMP DP RH WIND PRES REMARKS
 
ALBANY CLOUDY 44 34 67 N5 30.20S  
NEW YORK CITY MOCLDY 48 45 89 NE8 30.08F  

 
 
ANZALL-152200-  
MARINE OBSERVATIONS  
 
STATION/POSITION TIME TEMP WIND PRES VSBY WAVE
 
AIR SEA DIR/SP/G HT/PER  
(UTC) (F) (DEG/KT/KT) (MB) (MI) (FT/S)  
BOSTON BUOY 2050 49 47 30/ 12/ 16 1020.7R 2/11  
BUZZARDS BAY 2000 48 20/ 11/ 11 1020.4R  
NANTUCKET SOUND 2050 41 20/ 6/ 6 1020.7R 1/ 8  
MASS BAY-STELLWA 2004 46 43 340/ 12/ 14 1019.7R 1 7/8 3/ 8  
ISLE OF SHOALS 2000 48 320/ 12/ 12 1021.5R  
S OF BLOCK IS 2043 49 N/A 4/ 8  

 
   
.....................KEY......................
 
 
SKY/WX - SKY CONDITION/PRESENT WEATHER  
TMP - TEMPERATURE IN FAHRENHEIT  
DWPT - DEWPOINT IN FAHRENHEIT  
RH - RELATIVE HUMIDITY IN PERCENT  
WIND - DIRECTION AND SPEED IN MPH  
PRES - MEAN SEA LEVEL PRESSURE IN INCHES OF HG  
WCI - WIND CHILL INDEX  
VSB - VISIBILITY IN MILES  
HX - HEAT INDEX  
TC - TEMPERATURE IN CELSIUS  
VRB - VARIABLE WIND DIRECTION  
N/A - NOT AVAILABLE  
 
 
CLICK HERE TO GO TO PREVIOUS BULLETINS.

The Nexlab MA Page
The Nexlab RI Page
The Nexlab NH Page
The Nexlab CT Page Main Text Page